Stations météo

réclame
Mon MeteoGroup
Brignogan, France (7107): Température de l'air & dewpoint: 19.02.2018 06:00:00 - 25.02.2018 06:00:00 (CET)Brignogan, France (7107): Vitesse du vent & gusts: 19.02.2018 06:00:00 - 25.02.2018 06:00:00 (CET)Brignogan, France (7107): Direction du vent: 19.02.2018 06:00:00 - 25.02.2018 06:00:00 (CET)Brignogan, France (7107): reduced air pressure: 19.02.2018 06:00:00 - 25.02.2018 06:00:00 (CET)Brignogan, France (7107): visibility: 19.02.2018 06:00:00 - 25.02.2018 06:00:00 (CET)Brignogan, France (7107): Quantités de précipitations: 19.02.2018 06:00:00 - 25.02.2018 06:00:00 (CET)
Date & Time tt [°C] td [°C] ff [km/h] ff [knt] fx [km/h] fx [knt] dd ppp [hPa] vv [km] rr [mm]
25.02.2018 06:00:00 4,1 -1,5 32 17 46 25 E 1019,2 - 0,0
25.02.2018 05:00:00 4,4 -1,0 33 18 44 24 E 1018,8 - 0,0
25.02.2018 04:00:00 4,4 0,0 27 14 37 20 E 1018,5 - 0,0
25.02.2018 03:00:00 4,1 -0,1 25 14 43 23 E 1018,5 - 0,0
25.02.2018 02:00:00 3,7 -1,3 31 17 45 24 E 1018,4 - 0,0
25.02.2018 01:00:00 4,1 -0,7 33 18 44 24 E 1018,1 - 0,0
25.02.2018 00:00:00 4,3 -0,1 28 15 45 25 E 1018,0 - 0,0
24.02.2018 23:00:00 5,0 0,7 40 22 51 27 E 1017,6 - 0,0
24.02.2018 22:00:00 5,1 0,8 37 20 56 31 E 1017,2 - 0,0
24.02.2018 21:00:00 5,4 1,5 44 24 56 30 E 1016,8 - 0,0
24.02.2018 20:00:00 5,3 1,0 45 24 58 31 E 1016,0 - 0,0
24.02.2018 19:00:00 5,5 0,5 42 23 59 32 E 1015,7 10 0,0
24.02.2018 18:00:00 5,5 0,3 44 24 58 31 E 1015,1 - 0,0
24.02.2018 17:00:00 5,6 -0,5 45 25 60 32 E 1015,2 - 0,0
24.02.2018 16:00:00 5,9 -0,2 43 23 55 30 ENE 1015,1 12 0,0
24.02.2018 15:00:00 6,4 0,1 37 20 49 27 ENE 1015,2 - 0,0
24.02.2018 14:00:00 6,0 -0,3 35 19 47 25 E 1015,5 - 0,0
24.02.2018 13:00:00 5,8 -0,7 32 18 45 24 E 1015,6 18 0,0
24.02.2018 12:00:00 5,3 -1,0 34 18 46 25 E 1015,7 - 0,0
24.02.2018 11:00:00 4,0 -1,0 19 10 29 16 ESE 1015,8 - 0,0
24.02.2018 10:00:00 2,5 -2,8 8 4 23 12 SE 1015,9 20 0,0
24.02.2018 09:00:00 1,8 -2,7 13 7 28 15 ESE 1015,6 - 0,0
24.02.2018 08:00:00 1,0 -3,3 16 9 33 18 ESE 1015,2 - 0,0
24.02.2018 07:00:00 0,5 -3,6 11 6 26 14 ESE 1014,9 20 0,0
24.02.2018 06:00:00 1,3 -3,4 15 8 29 16 ESE 1014,8 - 0,0
24.02.2018 05:00:00 1,8 -3,3 20 11 29 16 E 1014,5 - 0,0
24.02.2018 04:00:00 1,8 -3,7 19 10 29 16 E 1014,4 - 0,0
24.02.2018 03:00:00 2,2 -3,3 19 10 33 18 ESE 1014,6 - 0,0
24.02.2018 02:00:00 2,5 -2,8 24 13 37 20 ESE 1014,7 - 0,0
24.02.2018 01:00:00 2,5 -2,0 26 14 36 19 E 1014,7 - 0,0
24.02.2018 00:00:00 2,5 -2,0 24 13 39 21 ESE 1014,4 - 0,0
23.02.2018 23:00:00 3,0 -1,4 28 15 45 25 ESE 1014,3 - 0,0
23.02.2018 22:00:00 3,6 -1,0 30 16 47 26 E 1014,1 - 0,0
23.02.2018 21:00:00 3,8 -1,4 34 19 47 25 E 1013,9 - 0,0
23.02.2018 20:00:00 3,6 -2,6 29 16 50 27 ESE 1014,0 - 0,0
23.02.2018 19:00:00 4,0 -2,9 38 20 51 27 E 1014,0 20 0,0
23.02.2018 18:00:00 4,7 -2,0 39 21 51 28 E 1013,9 - 0,0
23.02.2018 17:00:00 5,3 -1,6 37 20 51 28 E 1013,8 - 0,0
23.02.2018 16:00:00 5,8 -1,4 34 18 49 27 E 1014,2 20 0,0
23.02.2018 15:00:00 6,0 -1,2 36 20 51 27 E 1014,7 - 0,0
23.02.2018 14:00:00 5,9 -0,8 39 21 48 26 E 1015,2 - 0,0
23.02.2018 13:00:00 5,5 -1,2 36 19 46 25 E 1016,2 15 0,0
23.02.2018 12:00:00 4,6 -2,3 34 19 49 26 E 1016,8 - 0,0
23.02.2018 11:00:00 3,8 -1,2 19 10 30 16 ESE 1017,3 - 0,0
23.02.2018 10:00:00 2,8 -2,3 13 7 26 14 ESE 1017,4 12 0,0
23.02.2018 09:00:00 1,9 -2,6 11 6 29 16 ESE 1017,4 - 0,0
23.02.2018 08:00:00 0,7 -3,6 9 5 20 11 SE 1017,1 - 0,0
23.02.2018 07:00:00 0,9 -3,2 9 5 26 14 ESE 1017,4 20 0,0
23.02.2018 06:00:00 1,6 -2,7 16 9 27 15 ESE 1017,5 - 0,0
23.02.2018 05:00:00 1,5 -4,0 16 9 41 22 ESE 1017,6 - 0,0
23.02.2018 04:00:00 2,1 -2,8 18 10 35 19 ESE 1018,2 - 0,0
23.02.2018 03:00:00 2,8 -1,9 22 12 40 22 E 1018,4 - 0,0
23.02.2018 02:00:00 3,5 -0,9 26 14 46 25 ESE 1018,4 - 0,0
23.02.2018 01:00:00 4,5 0,8 37 20 50 27 E 1018,4 - 0,0
23.02.2018 00:00:00 4,9 1,2 32 17 42 23 E 1018,3 - 0,0
22.02.2018 23:00:00 5,2 1,1 32 18 44 24 E 1018,6 - 0,0
22.02.2018 22:00:00 5,5 1,2 32 17 44 24 E 1018,7 - 0,0
22.02.2018 21:00:00 6,0 1,1 33 18 49 27 E 1018,8 - 0,0
22.02.2018 20:00:00 6,1 0,6 36 19 53 29 E 1018,8 - 0,0
22.02.2018 19:00:00 6,3 0,2 41 22 54 29 ENE 1018,7 12 0,0
22.02.2018 18:00:00 6,5 0,4 37 20 56 31 ENE 1018,5 - 0,0
22.02.2018 17:00:00 6,7 0,6 42 23 55 30 E 1018,6 - 0,0
22.02.2018 16:00:00 7,0 0,6 39 21 54 29 E 1019,0 8 0,0
22.02.2018 15:00:00 7,2 0,8 40 22 55 30 E 1019,6 - 0,0
22.02.2018 14:00:00 7,4 1,2 37 20 51 27 E 1020,1 - 0,0
22.02.2018 13:00:00 7,3 1,8 31 17 47 25 E 1020,6 14 0,0
22.02.2018 12:00:00 5,9 1,0 27 14 36 20 E 1021,1 - 0,0
22.02.2018 11:00:00 5,4 0,6 31 17 40 22 E 1021,3 - 0,0
22.02.2018 10:00:00 5,8 0,9 30 16 39 21 E 1021,3 16 0,0
22.02.2018 09:00:00 5,5 0,7 32 17 42 23 E 1021,3 - 0,0
22.02.2018 08:00:00 5,6 1,3 34 18 42 23 E 1020,9 - 0,0
22.02.2018 07:00:00 5,6 1,1 34 19 44 24 E 1020,9 20 0,0
22.02.2018 06:00:00 5,1 0,7 26 14 41 22 E 1021,2 - 0,0
22.02.2018 05:00:00 5,3 0,8 29 16 45 24 E 1021,2 - 0,0
22.02.2018 04:00:00 5,3 0,7 27 15 41 22 E 1021,4 - 0,0
22.02.2018 03:00:00 5,7 1,0 26 14 41 22 E 1021,8 - 0,0
22.02.2018 02:00:00 6,0 1,3 27 15 38 21 E 1022,1 - 0,0
22.02.2018 01:00:00 6,1 1,2 22 12 44 24 E 1022,6 - 0,0
22.02.2018 00:00:00 6,7 1,2 35 19 61 33 E 1022,7 - 0,0
21.02.2018 23:00:00 7,6 2,1 46 25 61 33 ENE 1023,1 - 0,0
21.02.2018 22:00:00 7,5 2,0 41 22 55 30 ENE 1023,4 - 0,0
21.02.2018 21:00:00 7,4 1,7 43 23 57 31 ENE 1023,6 - 0,0
21.02.2018 20:00:00 7,7 2,8 40 22 51 28 ENE 1023,6 - 0,0
21.02.2018 19:00:00 7,2 1,3 33 18 49 26 E 1023,6 16 0,0
21.02.2018 18:00:00 7,5 0,7 40 21 50 27 ENE 1023,6 - 0,0
21.02.2018 17:00:00 8,0 1,2 36 19 49 26 ENE 1023,5 - 0,0
21.02.2018 16:00:00 8,2 1,8 38 20 51 28 ENE 1023,8 18 0,0
21.02.2018 15:00:00 8,6 3,4 37 20 48 26 ENE 1024,0 - 0,0
21.02.2018 14:00:00 8,3 2,9 37 20 54 29 ENE 1024,5 - 0,0
21.02.2018 13:00:00 8,8 3,2 41 22 51 28 E 1024,7 15 0,0
21.02.2018 12:00:00 9,1 2,6 42 23 51 28 ENE 1024,9 - 0,0
21.02.2018 11:00:00 7,4 5,0 22 12 48 26 E 1025,3 - 0,0
21.02.2018 10:00:00 7,6 5,4 34 18 58 32 ENE 1025,3 6 0,4
21.02.2018 09:00:00 8,4 4,0 38 20 52 28 ENE 1024,8 - 0,0
21.02.2018 08:00:00 8,4 4,2 42 23 61 33 ENE 1024,6 - 0,0
21.02.2018 07:00:00 8,8 4,0 40 22 50 27 NE 1024,4 20 0,0
21.02.2018 06:00:00 8,8 3,0 42 23 54 29 NE 1024,6 - 0,0
21.02.2018 05:00:00 9,0 2,8 42 23 51 28 NNE 1024,5 - 0,0
21.02.2018 04:00:00 9,0 3,8 40 21 53 29 NNE 1024,8 - 0,0
21.02.2018 03:00:00 9,1 3,3 38 20 56 30 NE 1024,9 - 0,0
21.02.2018 02:00:00 9,1 4,5 44 24 58 32 NNE 1025,0 - 0,0
21.02.2018 01:00:00 9,0 4,8 42 23 57 31 NNE 1025,2 - 0,0
21.02.2018 00:00:00 9,0 5,0 40 22 56 31 NNE 1025,3 - 0,0
20.02.2018 23:00:00 9,0 4,8 40 22 59 32 N 1025,3 - 0,0
20.02.2018 22:00:00 9,1 4,3 42 23 58 31 N 1025,1 - 0,0
20.02.2018 21:00:00 9,1 4,5 35 19 60 33 N 1025,2 - 0,0
20.02.2018 20:00:00 9,2 4,2 36 20 58 32 N 1025,0 - 0,0
20.02.2018 19:00:00 9,1 4,3 36 19 58 31 N 1024,3 22 0,0
20.02.2018 18:00:00 9,4 4,2 36 19 58 32 N 1024,6 - 0,0
20.02.2018 17:00:00 9,7 4,1 39 21 58 31 N 1024,1 - 0,0
20.02.2018 16:00:00 9,9 3,8 37 20 57 31 N 1024,5 22 0,0
20.02.2018 15:00:00 9,9 4,3 37 20 57 31 N 1025,0 - 0,0
20.02.2018 14:00:00 9,9 4,7 37 20 59 32 N 1024,9 - 0,0
20.02.2018 13:00:00 9,8 4,8 39 21 67 36 N 1024,7 15 0,0
20.02.2018 12:00:00 9,7 4,9 40 22 68 37 N 1024,6 - 0,0
20.02.2018 11:00:00 9,5 5,3 41 22 65 35 N 1024,2 - 0,0
20.02.2018 10:00:00 9,4 6,3 45 25 63 34 NNW 1023,8 8 0,0
20.02.2018 09:00:00 9,5 7,4 37 20 54 29 N 1023,1 - 0,0
20.02.2018 08:00:00 9,8 8,2 35 19 49 27 NNW 1022,7 - 0,0
20.02.2018 07:00:00 10,1 8,7 28 15 40 22 NNW 1022,5 - 0,0
20.02.2018 06:00:00 10,0 8,4 26 14 41 22 NNW 1022,3 - 0,0
20.02.2018 05:00:00 9,7 8,1 26 14 44 24 NNW 1022,4 - 0,0
20.02.2018 04:00:00 9,9 7,7 33 18 46 25 NNW 1021,9 - 0,0
20.02.2018 03:00:00 9,8 7,6 32 17 44 24 NNW 1022,2 - 0,0
20.02.2018 02:00:00 9,8 8,1 31 17 46 25 NNW 1022,3 - 0,0
20.02.2018 01:00:00 9,8 7,7 34 19 45 25 NNW 1022,3 - 0,0
20.02.2018 00:00:00 10,1 8,5 31 17 40 22 NNW 1022,1 - 0,0
19.02.2018 23:00:00 10,1 8,5 26 14 38 21 NNW 1022,1 - 0,0
19.02.2018 22:00:00 10,3 9,1 24 13 34 18 NW 1021,9 - 0,0
19.02.2018 21:00:00 10,1 8,9 29 15 38 20 NW 1021,6 - 0,0
19.02.2018 20:00:00 10,1 8,9 30 16 43 23 NW 1021,6 - 0,0
19.02.2018 19:00:00 10,1 8,7 34 19 46 25 NW 1021,4 12 0,0
19.02.2018 18:00:00 10,3 8,9 29 15 36 19 NW 1021,3 - 0,0
19.02.2018 17:00:00 10,4 9,0 22 12 29 16 WNW 1021,2 - 0,0
19.02.2018 16:00:00 10,0 8,8 14 8 26 14 WNW 1021,4 14 0,0
19.02.2018 15:00:00 9,9 8,8 22 12 31 17 NW 1021,5 - 0,0
19.02.2018 14:00:00 10,0 9,1 24 13 32 17 NW 1021,4 - 0,0
19.02.2018 13:00:00 10,4 9,6 19 10 37 20 NNW 1021,4 2,0 0,0
19.02.2018 12:00:00 10,2 9,4 25 14 35 19 NW 1021,3 - 0,0
19.02.2018 11:00:00 10,2 9,6 19 11 31 17 NW 1021,1 - 0,0
19.02.2018 10:00:00 10,0 9,4 32 17 45 24 WNW 1020,9 2,0 0,0
19.02.2018 09:00:00 9,9 9,4 24 13 34 18 NW 1020,8 - 0,0
19.02.2018 08:00:00 10,0 9,5 31 17 38 21 NW 1020,4 - 0,0
19.02.2018 07:00:00 10,0 9,5 26 14 34 18 NW 1020,1 2,0 0,0
19.02.2018 06:00:00 10,0 9,5 26 14 30 16 NW 1019,9 - 0,0

tt = Température de l'air
td = dewpoint
ff = Vitesse du vent
fx = gusts
dd = Direction du vent
ppp = reduced air pressure
vv = visibility
rr = Quantités de précipitations

stations d'obs. à proximité